Location: Catacaguana
(10.4120°N, 66.7591°W)
Time: 06:49:41
(UTC+00:00)

Meteor 1-27 - Pass Details

Date: 27 May 2022
Orbit: 837 x 893 km, 81.3° (Epoch: 28 June)

Event Time Altitude Azimuth Distance (km) Brightness Sun altitude
Rises 08:56:57 0° 348° (NNW) 3,433 7.6 -15.9°
Reaches altitude 10° 08:59:25 10° 345° (NNW) 2,488 6.8 -15.4°
Maximum altitude 09:04:57 60° 266° (W) 968 4.2 -14.2°
Drops below altitude 10° 09:10:26 10° 187° (S) 2,457 6.3 -13.0°
Sets 09:12:51 0° 183° (S) 3,387 7.1 -12.4°
